Time,TemperatureF,DewpointF,PressureIn,WindDirection,WindDirectionDegrees,WindSpeedMPH,WindSpeedGustMPH,Humidity,HourlyPrecipIn,Conditions,Clouds,dailyrainin,SoftwareType,DateUTC
2013-01-10 00:01:00,18.9,16.4,29.91,NNE,23,1.1,2.7,90,0.00,,,0.00,WUHU216HW,2013-01-10 09:01:00,
2013-01-10 00:06:00,19.1,16.6,29.91,NNE,23,0.2,1.6,90,0.00,,,0.00,WUHU216HW,2013-01-10 09:06:00,
2013-01-10 00:11:00,19.1,16.6,29.91,North,0,0.0,1.6,90,0.00,,,0.00,WUHU216HW,2013-01-10 09:11:00,
2013-01-10 00:16:00,19.1,16.6,29.91,North,0,0.4,1.1,90,0.00,,,0.00,WUHU216HW,2013-01-10 09:16:00,
2013-01-10 00:21:00,19.1,16.8,29.91,North,0,0.0,1.1,91,0.00,,,0.00,WUHU216HW,2013-01-10 09:21:00,
2013-01-10 00:26:00,19.1,16.8,29.91,NNW,338,0.0,1.1,91,0.00,,,0.00,WUHU216HW,2013-01-10 09:26:00,
2013-01-10 00:31:00,19.3,17.0,29.91,North,0,0.0,0.4,91,0.00,,,0.00,WUHU216HW,2013-01-10 09:31:00,
2013-01-10 00:36:00,19.3,16.7,29.92,NNW,338,0.0,0.4,90,0.00,,,0.00,WUHU216HW,2013-01-10 09:36:00,
2013-01-10 00:41:00,19.3,16.7,29.92,North,0,0.0,0.7,90,0.00,,,0.00,WUHU216HW,2013-01-10 09:41:00,
2013-01-10 00:46:00,19.4,16.9,29.92,North,0,0.4,0.7,90,0.00,,,0.00,WUHU216HW,2013-01-10 09:46:00,
2013-01-10 00:51:00,19.4,16.9,29.92,North,0,0.4,0.4,90,0.00,,,0.00,WUHU216HW,2013-01-10 09:51:00,
2013-01-10 00:56:00,19.4,16.9,29.92,NNW,338,0.0,0.4,90,0.00,,,0.00,WUHU216HW,2013-01-10 09:56:00,
2013-01-10 01:01:00,19.4,16.9,29.93,North,0,0.0,0.2,90,0.00,,,0.00,WUHU216HW,2013-01-10 10:01:00,
2013-01-10 01:06:00,19.4,16.9,29.93,North,0,0.0,0.2,90,0.00,,,0.00,WUHU216HW,2013-01-10 10:06:00,
2013-01-10 01:11:00,19.6,17.1,29.92,North,0,0.0,0.4,90,0.00,,,0.00,WUHU216HW,2013-01-10 10:11:00,
2013-01-10 01:16:00,19.6,17.1,29.93,North,0,0.0,0.4,90,0.00,,,0.00,WUHU216HW,2013-01-10 10:16:00,
2013-01-10 01:21:00,19.6,17.1,29.93,North,0,0.2,0.9,90,0.00,,,0.00,WUHU216HW,2013-01-10 10:21:00,
2013-01-10 01:26:00,19.6,17.1,29.93,NE,45,0.7,0.9,90,0.00,,,0.00,WUHU216HW,2013-01-10 10:26:00,
2013-01-10 01:31:00,19.6,17.1,29.93,East,90,0.7,1.3,90,0.00,,,0.00,WUHU216HW,2013-01-10 10:31:00,
2013-01-10 01:36:00,19.8,17.3,29.93,NE,45,0.4,1.3,90,0.00,,,0.00,WUHU216HW,2013-01-10 10:36:00,
2013-01-10 01:41:00,19.8,17.3,29.93,NE,45,0.4,1.1,90,0.00,,,0.00,WUHU216HW,2013-01-10 10:41:00,
2013-01-10 01:46:00,19.8,17.3,29.93,NE,45,0.4,1.1,90,0.00,,,0.00,WUHU216HW,2013-01-10 10:46:00,
2013-01-10 01:51:00,19.8,17.3,29.93,NE,45,0.0,1.1,90,0.00,,,0.00,WUHU216HW,2013-01-10 10:51:00,
2013-01-10 01:56:00,19.8,17.3,29.93,NE,45,0.4,1.1,90,0.00,,,0.00,WUHU216HW,2013-01-10 10:56:00,
2013-01-10 02:01:00,19.8,17.3,29.93,NE,45,0.2,1.1,90,0.00,,,0.00,WUHU216HW,2013-01-10 11:01:00,
2013-01-10 02:06:00,19.8,17.3,29.94,NE,45,0.0,0.9,90,0.00,,,0.00,WUHU216HW,2013-01-10 11:06:00,
2013-01-10 02:11:00,19.8,17.3,29.93,NE,45,0.4,0.9,90,0.00,,,0.00,WUHU216HW,2013-01-10 11:11:00,
2013-01-10 02:16:00,20.0,17.5,29.94,NE,45,0.0,0.9,90,0.00,,,0.00,WUHU216HW,2013-01-10 11:16:00,
2013-01-10 02:21:00,20.0,17.5,29.93,NE,45,0.0,0.9,90,0.00,,,0.00,WUHU216HW,2013-01-10 11:21:00,
2013-01-10 02:26:00,20.0,17.5,29.94,NE,45,0.0,0.9,90,0.00,,,0.00,WUHU216HW,2013-01-10 11:26:00,
2013-01-10 02:31:00,20.0,17.5,29.94,NE,45,0.0,0.4,90,0.00,,,0.00,WUHU216HW,2013-01-10 11:31:00,
2013-01-10 02:36:00,20.0,17.5,29.94,NE,45,0.0,0.4,90,0.00,,,0.00,WUHU216HW,2013-01-10 11:36:00,
2013-01-10 02:41:00,20.0,17.5,29.94,NE,45,0.0,0.4,90,0.00,,,0.00,WUHU216HW,2013-01-10 11:41:00,
2013-01-10 02:46:00,20.0,17.5,29.94,NE,45,0.0,0.0,90,0.00,,,0.00,WUHU216HW,2013-01-10 11:46:00,
2013-01-10 02:51:00,20.2,17.6,29.95,NE,45,0.0,0.0,90,0.00,,,0.00,WUHU216HW,2013-01-10 11:51:00,
2013-01-10 02:56:00,20.2,17.6,29.95,NE,45,0.0,0.0,90,0.00,,,0.00,WUHU216HW,2013-01-10 11:56:00,
2013-01-10 03:01:00,20.2,17.6,29.95,NE,45,0.0,0.0,90,0.00,,,0.00,WUHU216HW,2013-01-10 12:01:00,
2013-01-10 03:06:00,20.3,17.8,29.94,NE,45,0.0,0.0,90,0.00,,,0.00,WUHU216HW,2013-01-10 12:06:00,
2013-01-10 03:11:00,20.3,17.8,29.95,NE,45,0.0,0.0,90,0.00,,,0.00,WUHU216HW,2013-01-10 12:11:00,
2013-01-10 03:16:00,20.3,17.8,29.95,NE,45,0.0,0.0,90,0.00,,,0.00,WUHU216HW,2013-01-10 12:16:00,
2013-01-10 03:21:00,20.5,18.0,29.95,NE,45,0.0,0.0,90,0.00,,,0.00,WUHU216HW,2013-01-10 12:21:00,
2013-01-10 03:26:00,20.5,18.0,29.95,NE,45,0.2,0.2,90,0.00,,,0.00,WUHU216HW,2013-01-10 12:26:00,
2013-01-10 03:31:00,20.5,18.0,29.95,NE,45,0.0,0.2,90,0.00,,,0.00,WUHU216HW,2013-01-10 12:31:00,
2013-01-10 03:36:00,20.5,18.0,29.95,NE,45,0.0,0.0,90,0.00,,,0.00,WUHU216HW,2013-01-10 12:36:00,
2013-01-10 03:41:00,20.5,18.0,29.95,NE,45,0.0,0.0,90,0.00,,,0.00,WUHU216HW,2013-01-10 12:41:00,
2013-01-10 03:46:00,20.5,18.3,29.95,NE,45,0.4,0.4,91,0.00,,,0.00,WUHU216HW,2013-01-10 12:46:00,
2013-01-10 03:51:00,20.7,18.2,29.96,NE,45,0.4,0.4,90,0.00,,,0.00,WUHU216HW,2013-01-10 12:51:00,
2013-01-10 03:56:00,20.7,18.5,29.95,NE,45,0.0,0.7,91,0.00,,,0.00,WUHU216HW,2013-01-10 12:56:00,
2013-01-10 04:01:00,20.7,18.5,29.96,NE,45,0.2,0.7,91,0.00,,,0.00,WUHU216HW,2013-01-10 13:01:00,
2013-01-10 04:06:00,20.7,18.2,29.96,NE,45,0.4,1.3,90,0.00,,,0.00,WUHU216HW,2013-01-10 13:06:00,
2013-01-10 04:11:00,20.7,18.5,29.96,NE,45,1.3,1.3,91,0.00,,,0.00,WUHU216HW,2013-01-10 13:11:00,
2013-01-10 04:16:00,20.7,18.5,29.96,NE,45,0.7,1.3,91,0.00,,,0.00,WUHU216HW,2013-01-10 13:16:00,
2013-01-10 04:21:00,20.7,18.2,29.96,NE,45,0.4,1.6,90,0.00,,,0.00,WUHU216HW,2013-01-10 13:21:00,
2013-01-10 04:26:00,20.7,18.5,29.96,NE,45,0.0,1.6,91,0.00,,,0.00,WUHU216HW,2013-01-10 13:26:00,
2013-01-10 04:31:00,20.7,18.5,29.96,NE,45,0.4,0.9,91,0.00,,,0.00,WUHU216HW,2013-01-10 13:31:00,
2013-01-10 04:36:00,20.7,18.2,29.97,NE,45,0.9,0.9,90,0.00,,,0.00,WUHU216HW,2013-01-10 13:36:00,
2013-01-10 04:41:00,20.9,18.4,29.97,NE,45,0.4,0.9,90,0.00,,,0.00,WUHU216HW,2013-01-10 13:41:00,
2013-01-10 04:46:00,20.9,18.4,29.97,NE,45,0.7,0.7,90,0.00,,,0.00,WUHU216HW,2013-01-10 13:46:00,
2013-01-10 04:51:00,20.9,18.6,29.97,NE,45,1.1,1.1,91,0.00,,,0.00,WUHU216HW,2013-01-10 13:51:00,
2013-01-10 04:56:00,20.9,18.4,29.98,NE,45,1.1,1.1,90,0.00,,,0.00,WUHU216HW,2013-01-10 13:56:00,
2013-01-10 05:01:00,20.9,18.4,29.97,NE,45,0.0,1.1,90,0.00,,,0.00,WUHU216HW,2013-01-10 14:01:00,
2013-01-10 05:06:00,20.9,18.6,29.97,NE,45,0.0,0.4,91,0.00,,,0.00,WUHU216HW,2013-01-10 14:06:00,
2013-01-10 05:11:00,20.9,18.6,29.97,NE,45,0.0,0.4,91,0.00,,,0.00,WUHU216HW,2013-01-10 14:11:00,
2013-01-10 05:16:00,20.9,18.6,29.97,NE,45,0.0,0.4,91,0.00,,,0.00,WUHU216HW,2013-01-10 14:16:00,
2013-01-10 05:21:00,20.9,18.6,29.96,NE,45,0.2,0.4,91,0.00,,,0.00,WUHU216HW,2013-01-10 14:21:00,
2013-01-10 05:26:00,20.9,18.6,29.97,NE,45,0.0,0.4,91,0.00,,,0.00,WUHU216HW,2013-01-10 14:26:00,
2013-01-10 05:31:00,21.1,18.5,29.97,NE,45,0.4,0.9,90,0.00,,,0.00,WUHU216HW,2013-01-10 14:31:00,
2013-01-10 05:36:00,21.1,18.5,29.98,NE,45,0.4,0.9,90,0.00,,,0.00,WUHU216HW,2013-01-10 14:36:00,
2013-01-10 05:41:00,21.2,19.0,29.98,NE,45,0.0,0.9,91,0.00,,,0.00,WUHU216HW,2013-01-10 14:41:00,
2013-01-10 05:46:00,21.2,18.7,29.98,NE,45,0.0,0.9,90,0.00,,,0.00,WUHU216HW,2013-01-10 14:46:00,
2013-01-10 05:51:00,21.2,18.7,29.98,NE,45,0.0,0.7,90,0.00,,,0.00,WUHU216HW,2013-01-10 14:51:00,
2013-01-10 05:56:00,21.2,18.7,29.98,NE,45,0.0,0.4,90,0.00,,,0.00,WUHU216HW,2013-01-10 14:56:00,
2013-01-10 06:01:00,21.2,18.7,29.98,NE,45,0.4,0.4,90,0.00,,,0.00,WUHU216HW,2013-01-10 15:01:00,
2013-01-10 06:06:00,21.2,18.7,29.98,NE,45,1.1,1.1,90,0.00,,,0.00,WUHU216HW,2013-01-10 15:06:00,
2013-01-10 06:11:00,21.2,18.7,29.98,NE,45,0.4,1.1,90,0.00,,,0.00,WUHU216HW,2013-01-10 15:11:00,
2013-01-10 06:16:00,21.2,18.7,29.99,NE,45,0.2,1.1,90,0.00,,,0.00,WUHU216HW,2013-01-10 15:16:00,
2013-01-10 06:21:00,21.2,19.0,29.99,NE,45,1.3,1.3,91,0.00,,,0.00,WUHU216HW,2013-01-10 15:21:00,
2013-01-10 06:26:00,21.2,18.7,29.99,NE,45,0.0,1.3,90,0.00,,,0.00,WUHU216HW,2013-01-10 15:26:00,
2013-01-10 06:31:00,21.2,19.0,29.99,NE,45,0.0,1.1,91,0.00,,,0.00,WUHU216HW,2013-01-10 15:31:00,
2013-01-10 06:36:00,21.2,19.0,29.99,NE,45,0.0,0.4,91,0.00,,,0.00,WUHU216HW,2013-01-10 15:36:00,
2013-01-10 06:41:00,21.2,19.0,29.99,NE,45,0.0,0.2,91,0.00,,,0.00,WUHU216HW,2013-01-10 15:41:00,
2013-01-10 06:46:00,21.4,19.2,29.99,NE,45,0.0,0.2,91,0.00,,,0.00,WUHU216HW,2013-01-10 15:46:00,
2013-01-10 06:51:00,21.4,19.2,29.99,NE,45,0.0,0.2,91,0.00,,,0.00,WUHU216HW,2013-01-10 15:51:00,
2013-01-10 06:56:00,21.2,19.0,30.00,NE,45,0.2,0.4,91,0.00,,,0.00,WUHU216HW,2013-01-10 15:56:00,
2013-01-10 07:01:00,21.2,19.0,30.01,NE,45,0.4,0.4,91,0.00,,,0.00,WUHU216HW,2013-01-10 16:01:00,
2013-01-10 07:06:00,21.2,19.0,30.01,NE,45,0.4,0.4,91,0.00,,,0.00,WUHU216HW,2013-01-10 16:06:00,
2013-01-10 07:11:00,21.2,19.0,30.01,NE,45,0.2,0.7,91,0.00,,,0.00,WUHU216HW,2013-01-10 16:11:00,
2013-01-10 07:16:00,21.2,19.0,30.01,NE,45,0.0,0.7,91,0.00,,,0.00,WUHU216HW,2013-01-10 16:16:00,
2013-01-10 07:21:00,21.4,19.2,30.01,NE,45,0.0,0.2,91,0.00,,,0.00,WUHU216HW,2013-01-10 16:21:00,
2013-01-10 07:26:00,21.4,19.2,30.01,NE,45,0.0,0.0,91,0.00,,,0.00,WUHU216HW,2013-01-10 16:26:00,
2013-01-10 07:31:00,21.4,19.2,30.02,NE,45,0.0,0.0,91,0.00,,,0.00,WUHU216HW,2013-01-10 16:31:00,
2013-01-10 07:36:00,21.4,19.2,30.02,NE,45,0.0,0.0,91,0.00,,,0.00,WUHU216HW,2013-01-10 16:36:00,
2013-01-10 07:41:00,21.4,19.2,30.03,NE,45,0.0,0.0,91,0.00,,,0.00,WUHU216HW,2013-01-10 16:41:00,
2013-01-10 07:46:00,21.4,19.2,30.03,NE,45,0.0,0.0,91,0.00,,,0.00,WUHU216HW,2013-01-10 16:46:00,
2013-01-10 07:51:00,21.6,19.4,30.03,NE,45,0.0,0.0,91,0.00,,,0.00,WUHU216HW,2013-01-10 16:51:00,
2013-01-10 07:56:00,21.6,19.4,30.04,NE,45,0.0,0.0,91,0.00,,,0.00,WUHU216HW,2013-01-10 16:56:00,
2013-01-10 08:01:00,21.6,19.4,30.04,NE,45,0.0,0.0,91,0.00,,,0.00,WUHU216HW,2013-01-10 17:01:00,
2013-01-10 08:06:00,21.8,19.5,30.04,NE,45,0.0,0.0,91,0.00,,,0.00,WUHU216HW,2013-01-10 17:06:00,
2013-01-10 08:11:00,21.8,19.5,30.05,NE,45,0.0,0.0,91,0.00,,,0.00,WUHU216HW,2013-01-10 17:11:00,
2013-01-10 08:16:00,21.8,19.5,30.05,NE,45,0.0,0.0,91,0.00,,,0.00,WUHU216HW,2013-01-10 17:16:00,
2013-01-10 08:21:00,21.8,19.5,30.05,NE,45,0.0,0.0,91,0.00,,,0.00,WUHU216HW,2013-01-10 17:21:00,
2013-01-10 08:26:00,21.8,19.5,30.05,NE,45,0.0,0.0,91,0.00,,,0.00,WUHU216HW,2013-01-10 17:26:00,
2013-01-10 08:31:00,21.8,19.5,30.05,NE,45,0.0,0.0,91,0.00,,,0.00,WUHU216HW,2013-01-10 17:31:00,
2013-01-10 08:36:00,21.8,19.5,30.06,NE,45,0.0,0.0,91,0.00,,,0.00,WUHU216HW,2013-01-10 17:36:00,
2013-01-10 08:41:00,21.8,19.5,30.06,NE,45,0.0,0.0,91,0.00,,,0.00,WUHU216HW,2013-01-10 17:41:00,
2013-01-10 08:46:00,21.8,19.5,30.06,NE,45,0.0,0.0,91,0.00,,,0.00,WUHU216HW,2013-01-10 17:46:00,
2013-01-10 08:51:00,21.8,19.5,30.06,NE,45,0.0,0.0,91,0.00,,,0.00,WUHU216HW,2013-01-10 17:51:00,
2013-01-10 08:56:00,22.0,19.7,30.06,NE,45,0.0,0.0,91,0.00,,,0.00,WUHU216HW,2013-01-10 17:56:00,
2013-01-10 09:01:00,21.8,19.5,30.06,NE,45,0.0,0.0,91,0.00,,,0.00,WUHU216HW,2013-01-10 18:01:00,
2013-01-10 09:06:00,22.0,19.7,30.06,NE,45,0.0,0.0,91,0.00,,,0.00,WUHU216HW,2013-01-10 18:06:00,
2013-01-10 09:11:00,22.0,19.7,30.07,NE,45,0.0,0.0,91,0.00,,,0.00,WUHU216HW,2013-01-10 18:11:00,
2013-01-10 09:16:00,22.0,19.7,30.07,NE,45,0.0,0.0,91,0.00,,,0.00,WUHU216HW,2013-01-10 18:16:00,
2013-01-10 09:21:00,22.0,19.7,30.07,NE,45,0.0,0.0,91,0.00,,,0.00,WUHU216HW,2013-01-10 18:21:00,
2013-01-10 09:26:00,22.0,19.7,30.07,NE,45,0.0,0.0,91,0.00,,,0.00,WUHU216HW,2013-01-10 18:26:00,
2013-01-10 09:31:00,22.0,19.7,30.07,NE,45,0.0,0.0,91,0.00,,,0.00,WUHU216HW,2013-01-10 18:31:00,
2013-01-10 09:36:00,22.0,19.7,30.07,NE,45,0.0,0.0,91,0.00,,,0.00,WUHU216HW,2013-01-10 18:36:00,
2013-01-10 09:41:00,22.0,19.7,30.08,NE,45,0.0,0.0,91,0.00,,,0.00,WUHU216HW,2013-01-10 18:41:00,
2013-01-10 09:46:00,22.0,19.7,30.08,NE,45,0.0,0.0,91,0.00,,,0.00,WUHU216HW,2013-01-10 18:46:00,
2013-01-10 09:51:00,22.0,19.7,30.09,NE,45,0.0,0.0,91,0.00,,,0.00,WUHU216HW,2013-01-10 18:51:00,
2013-01-10 09:56:00,22.0,19.7,30.09,NE,45,0.0,0.0,91,0.00,,,0.00,WUHU216HW,2013-01-10 18:56:00,
2013-01-10 10:01:00,22.1,19.9,30.09,NE,45,0.0,0.0,91,0.00,,,0.00,WUHU216HW,2013-01-10 19:01:00,
2013-01-10 10:06:00,22.1,19.9,30.09,NE,45,0.9,1.1,91,0.00,,,0.00,WUHU216HW,2013-01-10 19:06:00,
2013-01-10 10:11:00,22.1,19.9,30.09,NE,45,0.9,1.1,91,0.00,,,0.00,WUHU216HW,2013-01-10 19:11:00,
2013-01-10 10:16:00,22.3,20.1,30.09,NE,45,1.1,1.8,91,0.00,,,0.00,WUHU216HW,2013-01-10 19:16:00,
2013-01-10 10:21:00,22.3,20.1,30.09,NE,45,0.9,1.8,91,0.00,,,0.00,WUHU216HW,2013-01-10 19:21:00,
2013-01-10 10:26:00,22.3,20.1,30.09,NE,45,0.0,0.9,91,0.00,,,0.00,WUHU216HW,2013-01-10 19:26:00,
2013-01-10 10:31:00,22.5,20.3,30.08,NE,45,0.0,0.0,91,0.00,,,0.00,WUHU216HW,2013-01-10 19:31:00,
2013-01-10 10:36:00,22.5,20.3,30.09,NE,45,0.0,0.4,91,0.00,,,0.00,WUHU216HW,2013-01-10 19:36:00,
2013-01-10 10:41:00,22.5,20.3,30.09,NE,45,0.0,0.4,91,0.00,,,0.00,WUHU216HW,2013-01-10 19:41:00,
2013-01-10 10:46:00,22.5,20.3,30.09,NE,45,0.7,1.1,91,0.00,,,0.00,WUHU216HW,2013-01-10 19:46:00,
2013-01-10 10:51:00,22.7,20.4,30.10,NE,45,1.1,1.1,91,0.00,,,0.00,WUHU216HW,2013-01-10 19:51:00,
2013-01-10 10:56:00,22.7,20.4,30.11,NE,45,0.0,1.1,91,0.00,,,0.00,WUHU216HW,2013-01-10 19:56:00,
2013-01-10 11:02:00,22.7,20.4,30.10,NE,45,0.4,1.1,91,0.00,,,0.00,WUHU216HW,2013-01-10 20:02:00,
2013-01-10 11:07:00,22.7,20.4,30.10,NE,45,0.0,1.1,91,0.00,,,0.00,WUHU216HW,2013-01-10 20:07:00,
2013-01-10 11:12:00,22.7,20.4,30.09,NE,45,0.7,1.1,91,0.00,,,0.00,WUHU216HW,2013-01-10 20:12:00,
2013-01-10 11:17:00,23.0,20.8,30.10,NE,45,0.0,0.9,91,0.00,,,0.00,WUHU216HW,2013-01-10 20:17:00,
2013-01-10 11:22:00,23.0,20.8,30.10,NE,45,0.0,0.9,91,0.00,,,0.00,WUHU216HW,2013-01-10 20:22:00,
2013-01-10 11:27:00,23.0,20.8,30.11,NE,45,0.2,0.2,91,0.00,,,0.00,WUHU216HW,2013-01-10 20:27:00,
2013-01-10 11:32:00,23.0,20.8,30.11,NE,45,0.0,0.2,91,0.00,,,0.00,WUHU216HW,2013-01-10 20:32:00,
2013-01-10 11:37:00,23.2,21.0,30.11,NE,45,0.0,0.0,91,0.00,,,0.00,WUHU216HW,2013-01-10 20:37:00,
2013-01-10 11:42:00,23.4,21.2,30.11,NE,45,0.0,0.0,91,0.00,,,0.00,WUHU216HW,2013-01-10 20:42:00,
2013-01-10 11:47:00,23.8,21.5,30.11,NE,45,0.2,0.4,91,0.00,,,0.00,WUHU216HW,2013-01-10 20:47:00,
2013-01-10 11:52:00,23.8,21.5,30.11,NE,45,0.0,0.7,91,0.00,,,0.00,WUHU216HW,2013-01-10 20:52:00,
2013-01-10 11:57:00,23.9,21.7,30.11,NE,45,0.0,0.7,91,0.00,,,0.00,WUHU216HW,2013-01-10 20:57:00,
2013-01-10 12:02:00,23.9,21.7,30.11,NE,45,0.0,0.0,91,0.00,,,0.00,WUHU216HW,2013-01-10 21:02:00,
2013-01-10 12:07:00,24.1,21.9,30.11,NE,45,0.0,0.0,91,0.00,,,0.00,WUHU216HW,2013-01-10 21:07:00,
2013-01-10 12:12:00,24.1,21.9,30.12,NE,45,0.0,0.0,91,0.00,,,0.00,WUHU216HW,2013-01-10 21:12:00,
2013-01-10 12:17:00,24.3,22.1,30.12,NE,45,0.0,0.0,91,0.00,,,0.00,WUHU216HW,2013-01-10 21:17:00,
2013-01-10 12:22:00,24.1,21.9,30.11,NE,45,0.0,0.0,91,0.00,,,0.00,WUHU216HW,2013-01-10 21:22:00,
2013-01-10 12:27:00,24.1,21.9,30.12,NE,45,0.0,0.0,91,0.00,,,0.00,WUHU216HW,2013-01-10 21:27:00,
2013-01-10 12:32:00,24.3,22.1,30.12,NE,45,0.0,0.0,91,0.00,,,0.00,WUHU216HW,2013-01-10 21:32:00,
2013-01-10 12:37:00,24.1,21.9,30.12,NE,45,0.0,0.0,91,0.00,,,0.00,WUHU216HW,2013-01-10 21:37:00,
2013-01-10 12:42:00,24.1,21.9,30.13,NE,45,0.0,0.0,91,0.00,,,0.00,WUHU216HW,2013-01-10 21:42:00,
2013-01-10 12:47:00,24.1,21.9,30.13,NE,45,0.0,0.0,91,0.00,,,0.00,WUHU216HW,2013-01-10 21:47:00,
2013-01-10 12:52:00,24.3,22.1,30.12,NE,45,0.0,0.0,91,0.00,,,0.00,WUHU216HW,2013-01-10 21:52:00,
2013-01-10 12:57:00,24.5,22.2,30.13,NE,45,0.0,0.0,91,0.00,,,0.00,WUHU216HW,2013-01-10 21:57:00,
2013-01-10 13:02:00,24.7,22.4,30.12,NE,45,0.0,0.0,91,0.00,,,0.00,WUHU216HW,2013-01-10 22:02:00,
2013-01-10 13:07:00,24.8,22.6,30.13,NE,45,0.0,0.0,91,0.00,,,0.00,WUHU216HW,2013-01-10 22:07:00,
2013-01-10 13:12:00,24.8,22.6,30.12,NE,45,0.0,0.0,91,0.00,,,0.00,WUHU216HW,2013-01-10 22:12:00,
2013-01-10 13:17:00,24.8,22.6,30.12,NE,45,0.0,0.0,91,0.00,,,0.00,WUHU216HW,2013-01-10 22:17:00,
2013-01-10 13:22:00,25.2,23.0,30.13,NE,45,0.0,0.0,91,0.00,,,0.00,WUHU216HW,2013-01-10 22:22:00,
2013-01-10 13:27:00,25.4,23.1,30.12,NE,45,0.0,0.0,91,0.00,,,0.00,WUHU216HW,2013-01-10 22:27:00,
2013-01-10 13:32:00,25.9,23.7,30.12,NE,45,0.2,0.4,91,0.00,,,0.00,WUHU216HW,2013-01-10 22:32:00,
2013-01-10 13:37:00,26.3,24.0,30.12,NE,45,0.4,0.7,91,0.00,,,0.00,WUHU216HW,2013-01-10 22:37:00,
2013-01-10 13:42:00,26.3,24.0,30.12,NE,45,0.0,0.7,91,0.00,,,0.00,WUHU216HW,2013-01-10 22:42:00,
2013-01-10 13:48:00,26.3,24.0,30.12,NE,45,0.2,0.7,91,0.00,,,0.00,WUHU216HW,2013-01-10 22:48:00,
2013-01-10 13:53:00,26.1,23.9,30.12,NE,45,0.0,0.2,91,0.00,,,0.00,WUHU216HW,2013-01-10 22:53:00,
2013-01-10 13:58:00,26.1,23.9,30.12,NE,45,0.0,0.0,91,0.00,,,0.00,WUHU216HW,2013-01-10 22:58:00,
2013-01-10 14:03:00,25.9,23.7,30.11,NE,45,0.0,0.4,91,0.00,,,0.00,WUHU216HW,2013-01-10 23:03:00,
2013-01-10 14:08:00,25.9,23.7,30.12,NE,45,0.4,0.4,91,0.00,,,0.00,WUHU216HW,2013-01-10 23:08:00,
2013-01-10 14:13:00,25.6,23.3,30.12,NE,45,0.0,0.4,91,0.00,,,0.00,WUHU216HW,2013-01-10 23:13:00,
2013-01-10 14:17:00,25.4,23.1,30.12,NE,45,0.4,0.4,91,0.00,,,0.00,WUHU216HW,2013-01-10 23:17:00,
2013-01-10 14:23:00,25.4,23.1,30.13,NE,45,0.0,0.4,91,0.00,,,0.00,WUHU216HW,2013-01-10 23:23:00,
2013-01-10 14:28:00,25.2,23.0,30.12,NE,45,0.2,0.4,91,0.00,,,0.00,WUHU216HW,2013-01-10 23:28:00,
2013-01-10 14:33:00,25.4,23.1,30.12,NE,45,0.2,0.4,91,0.00,,,0.00,WUHU216HW,2013-01-10 23:33:00,
2013-01-10 14:38:00,25.6,23.3,30.12,NE,45,0.0,0.2,91,0.00,,,0.00,WUHU216HW,2013-01-10 23:38:00,
2013-01-10 14:43:00,25.4,23.1,30.12,NE,45,0.4,0.4,91,0.00,,,0.00,WUHU216HW,2013-01-10 23:43:00,
2013-01-10 14:48:00,25.4,23.1,30.12,NE,45,0.0,0.4,91,0.00,,,0.00,WUHU216HW,2013-01-10 23:48:00,
2013-01-10 14:53:00,25.6,23.3,30.12,NE,45,0.2,0.4,91,0.00,,,0.00,WUHU216HW,2013-01-10 23:53:00,
2013-01-10 14:58:00,25.6,23.3,30.12,NE,45,0.2,0.4,91,0.00,,,0.00,WUHU216HW,2013-01-10 23:58:00,
2013-01-10 15:03:00,25.6,23.3,30.12,NE,45,0.7,1.1,91,0.00,,,0.00,WUHU216HW,2013-01-11 00:03:00,
2013-01-10 15:08:00,25.6,23.3,30.12,NE,45,0.0,1.1,91,0.00,,,0.00,WUHU216HW,2013-01-11 00:08:00,
2013-01-10 15:13:00,25.6,23.3,30.12,NE,45,0.0,1.8,91,0.00,,,0.00,WUHU216HW,2013-01-11 00:13:00,
2013-01-10 15:18:00,25.6,23.3,30.12,NE,45,0.4,1.8,91,0.00,,,0.00,WUHU216HW,2013-01-11 00:18:00,
2013-01-10 15:23:00,25.6,23.3,30.12,NE,45,0.4,0.9,91,0.00,,,0.00,WUHU216HW,2013-01-11 00:23:00,
2013-01-10 15:28:00,25.4,23.1,30.12,NE,45,0.2,0.4,91,0.00,,,0.00,WUHU216HW,2013-01-11 00:28:00,
2013-01-10 15:33:00,25.4,23.1,30.13,NE,45,0.0,0.4,91,0.00,,,0.00,WUHU216HW,2013-01-11 00:33:00,
2013-01-10 15:38:00,25.6,23.3,30.12,NE,45,0.2,1.6,91,0.00,,,0.00,WUHU216HW,2013-01-11 00:38:00,
2013-01-10 15:43:00,25.4,23.1,30.12,NE,45,1.8,1.8,91,0.00,,,0.00,WUHU216HW,2013-01-11 00:43:00,
2013-01-10 15:48:00,25.4,23.1,30.12,NE,45,0.4,1.8,91,0.00,,,0.00,WUHU216HW,2013-01-11 00:48:00,
2013-01-10 15:53:00,25.4,23.1,30.12,NE,45,1.8,1.8,91,0.00,,,0.00,WUHU216HW,2013-01-11 00:53:00,
2013-01-10 15:58:00,25.2,23.0,30.12,NE,45,0.9,1.8,91,0.00,,,0.00,WUHU216HW,2013-01-11 00:58:00,
2013-01-10 16:03:00,25.2,23.0,30.12,NE,45,0.2,2.0,91,0.00,,,0.00,WUHU216HW,2013-01-11 01:03:00,
2013-01-10 16:08:00,25.2,23.0,30.12,NE,45,0.9,2.0,91,0.00,,,0.00,WUHU216HW,2013-01-11 01:08:00,
2013-01-10 16:13:00,25.2,23.0,30.12,NE,45,1.8,3.8,91,0.00,,,0.00,WUHU216HW,2013-01-11 01:13:00,
2013-01-10 16:18:00,25.0,22.8,30.11,NE,45,1.6,3.8,91,0.00,,,0.00,WUHU216HW,2013-01-11 01:18:00,
2013-01-10 16:23:00,25.0,22.8,30.11,NE,45,1.8,3.4,91,0.00,,,0.00,WUHU216HW,2013-01-11 01:23:00,
2013-01-10 16:28:00,24.8,22.6,30.11,North,0,0.4,3.4,91,0.00,,,0.00,WUHU216HW,2013-01-11 01:28:00,
2013-01-10 16:33:00,24.8,22.6,30.11,NE,45,0.9,3.1,91,0.00,,,0.00,WUHU216HW,2013-01-11 01:33:00,
2013-01-10 16:38:00,24.8,22.6,30.11,ENE,68,1.1,2.5,91,0.00,,,0.00,WUHU216HW,2013-01-11 01:38:00,
2013-01-10 16:43:00,24.8,22.6,30.11,NNE,23,1.8,4.3,91,0.00,,,0.00,WUHU216HW,2013-01-11 01:43:00,
2013-01-10 16:48:00,24.7,22.4,30.11,NNE,23,2.7,4.3,91,0.00,,,0.00,WUHU216HW,2013-01-11 01:48:00,
2013-01-10 16:53:00,24.7,22.4,30.11,NNE,23,0.4,2.7,91,0.00,,,0.00,WUHU216HW,2013-01-11 01:53:00,
2013-01-10 16:58:00,24.7,22.4,30.11,North,0,1.1,1.6,91,0.00,,,0.00,WUHU216HW,2013-01-11 01:58:00,
2013-01-10 17:03:00,24.7,22.4,30.11,East,90,0.0,1.8,91,0.00,,,0.00,WUHU216HW,2013-01-11 02:03:00,
2013-01-10 17:08:00,24.5,22.2,30.11,North,0,0.4,2.5,91,0.00,,,0.00,WUHU216HW,2013-01-11 02:08:00,
2013-01-10 17:13:00,24.5,22.2,30.10,NE,45,1.1,2.5,91,0.00,,,0.00,WUHU216HW,2013-01-11 02:13:00,
2013-01-10 17:18:00,24.5,22.2,30.10,NNE,23,0.7,2.9,91,0.00,,,0.00,WUHU216HW,2013-01-11 02:18:00,
2013-01-10 17:23:00,24.5,22.2,30.10,North,0,0.4,2.9,91,0.00,,,0.00,WUHU216HW,2013-01-11 02:23:00,
2013-01-10 17:28:00,24.5,22.2,30.09,NE,45,2.5,2.9,91,0.00,,,0.00,WUHU216HW,2013-01-11 02:28:00,
2013-01-10 17:33:00,24.5,22.5,30.09,North,0,1.3,2.9,92,0.00,,,0.00,WUHU216HW,2013-01-11 02:33:00,
2013-01-10 17:38:00,24.5,22.5,30.09,NNE,23,2.7,2.7,92,0.00,,,0.00,WUHU216HW,2013-01-11 02:38:00,
2013-01-10 17:43:00,24.5,22.2,30.09,North,0,1.1,2.7,91,0.00,,,0.00,WUHU216HW,2013-01-11 02:43:00,
2013-01-10 17:48:00,24.5,22.2,30.09,NE,45,1.1,2.5,91,0.00,,,0.00,WUHU216HW,2013-01-11 02:48:00,
2013-01-10 17:53:00,24.5,22.5,30.09,North,0,1.8,2.7,92,0.00,,,0.00,WUHU216HW,2013-01-11 02:53:00,
2013-01-10 17:58:00,24.5,22.2,30.09,North,0,1.6,2.7,91,0.00,,,0.00,WUHU216HW,2013-01-11 02:58:00,
2013-01-10 18:03:00,24.3,22.3,30.09,North,0,0.0,1.6,92,0.00,,,0.00,WUHU216HW,2013-01-11 03:03:00,
2013-01-10 18:08:00,24.3,22.1,30.09,North,0,1.6,1.6,91,0.00,,,0.00,WUHU216HW,2013-01-11 03:08:00,
2013-01-10 18:13:00,24.3,22.1,30.10,North,0,1.6,1.6,91,0.00,,,0.00,WUHU216HW,2013-01-11 03:13:00,
2013-01-10 18:18:00,24.3,22.3,30.10,North,0,0.9,4.0,92,0.00,,,0.00,WUHU216HW,2013-01-11 03:18:00,
2013-01-10 18:23:00,24.3,22.3,30.09,North,0,0.2,4.0,92,0.00,,,0.00,WUHU216HW,2013-01-11 03:23:00,
2013-01-10 18:28:00,24.3,22.3,30.09,North,0,0.4,3.1,92,0.00,,,0.00,WUHU216HW,2013-01-11 03:28:00,
2013-01-10 18:33:00,24.3,22.3,30.09,NNE,23,4.0,4.0,92,0.00,,,0.00,WUHU216HW,2013-01-11 03:33:00,
2013-01-10 18:38:00,24.3,22.3,30.09,NNW,338,0.9,4.0,92,0.00,,,0.00,WUHU216HW,2013-01-11 03:38:00,
2013-01-10 18:43:00,24.3,22.3,30.09,North,0,1.8,1.8,92,0.00,,,0.00,WUHU216HW,2013-01-11 03:43:00,
2013-01-10 18:48:00,24.1,22.2,30.08,NNE,23,0.4,3.4,92,0.00,,,0.00,WUHU216HW,2013-01-11 03:48:00,
2013-01-10 18:53:00,24.1,22.2,30.08,North,0,1.1,4.5,92,0.00,,,0.00,WUHU216HW,2013-01-11 03:53:00,
2013-01-10 18:58:00,24.1,22.2,30.08,North,0,0.9,4.5,92,0.00,,,0.00,WUHU216HW,2013-01-11 03:58:00,
2013-01-10 19:03:00,24.1,22.2,30.08,North,0,2.5,4.5,92,0.00,,,0.00,WUHU216HW,2013-01-11 04:03:00,
2013-01-10 19:08:00,24.1,22.2,30.07,North,0,2.0,3.8,92,0.00,,,0.00,WUHU216HW,2013-01-11 04:08:00,
2013-01-10 19:13:00,24.1,22.2,30.07,NNW,338,0.4,3.8,92,0.00,,,0.00,WUHU216HW,2013-01-11 04:13:00,
2013-01-10 19:18:00,24.1,22.2,30.06,North,0,1.6,3.1,92,0.00,,,0.00,WUHU216HW,2013-01-11 04:18:00,
2013-01-10 19:23:00,24.1,22.2,30.06,NNW,338,4.9,4.9,92,0.00,,,0.00,WUHU216HW,2013-01-11 04:23:00,
2013-01-10 19:28:00,24.1,21.9,30.06,North,0,2.5,4.9,91,0.00,,,0.00,WUHU216HW,2013-01-11 04:28:00,
2013-01-10 19:33:00,24.1,22.2,30.05,North,0,0.2,2.9,92,0.00,,,0.00,WUHU216HW,2013-01-11 04:33:00,
2013-01-10 19:38:00,24.1,22.2,30.06,NNE,23,0.4,2.5,92,0.00,,,0.00,WUHU216HW,2013-01-11 04:38:00,
2013-01-10 19:43:00,24.1,22.2,30.06,NNW,338,1.1,2.7,92,0.00,,,0.00,WUHU216HW,2013-01-11 04:43:00,
2013-01-10 19:48:00,24.1,22.2,30.06,North,0,1.1,2.7,92,0.00,,,0.00,WUHU216HW,2013-01-11 04:48:00,
2013-01-10 19:53:00,24.1,22.2,30.05,North,0,2.0,4.5,92,0.00,,,0.00,WUHU216HW,2013-01-11 04:53:00,
2013-01-10 19:58:00,24.1,22.2,30.05,NNE,23,3.4,4.7,92,0.00,,,0.00,WUHU216HW,2013-01-11 04:58:00,
2013-01-10 20:00:00,24.1,22.2,30.05,North,0,1.1,4.7,92,0.00,,,0.00,WUHU216HW,2013-01-11 05:00:00,
2013-01-10 20:03:00,24.1,22.2,30.05,ENE,68,3.6,5.4,92,0.00,,,0.00,WUHU216HW,2013-01-11 05:03:00,
2013-01-10 20:08:00,24.1,22.2,30.05,North,0,0.2,5.4,92,0.00,,,0.00,WUHU216HW,2013-01-11 05:08:00,
2013-01-10 20:13:00,24.1,22.2,30.04,NE,45,1.1,3.6,92,0.00,,,0.00,WUHU216HW,2013-01-11 05:13:00,
2013-01-10 20:18:00,24.1,22.2,30.04,NNE,23,4.5,5.6,92,0.00,,,0.00,WUHU216HW,2013-01-11 05:18:00,
2013-01-10 20:23:00,24.1,22.2,30.04,NNE,23,3.4,6.7,92,0.00,,,0.00,WUHU216HW,2013-01-11 05:23:00,
2013-01-10 20:28:00,24.1,22.2,30.03,NNE,23,1.3,6.7,92,0.00,,,0.00,WUHU216HW,2013-01-11 05:28:00,
2013-01-10 20:33:00,24.3,22.3,30.03,NE,45,1.6,6.3,92,0.00,,,0.00,WUHU216HW,2013-01-11 05:33:00,
2013-01-10 20:38:00,24.3,22.3,30.03,NNE,23,2.9,4.0,92,0.00,,,0.00,WUHU216HW,2013-01-11 05:38:00,
2013-01-10 20:43:00,24.3,22.3,30.03,NNW,338,2.9,3.6,92,0.00,,,0.00,WUHU216HW,2013-01-11 05:43:00,
2013-01-10 20:48:00,24.3,22.3,30.02,East,90,1.1,4.7,92,0.00,,,0.00,WUHU216HW,2013-01-11 05:48:00,
2013-01-10 20:53:00,24.3,22.3,30.02,NE,45,3.1,5.6,92,0.00,,,0.00,WUHU216HW,2013-01-11 05:53:00,
2013-01-10 20:58:00,24.3,22.3,30.01,North,0,1.6,5.6,92,0.00,,,0.00,WUHU216HW,2013-01-11 05:58:00,
2013-01-10 21:03:00,24.3,22.3,30.01,NNE,23,1.1,5.4,92,0.00,,,0.00,WUHU216HW,2013-01-11 06:03:00,
2013-01-10 21:08:00,24.3,22.3,30.00,North,0,0.7,4.7,92,0.00,,,0.00,WUHU216HW,2013-01-11 06:08:00,
2013-01-10 21:13:00,24.3,22.3,30.00,NNE,23,2.9,6.0,92,0.00,,,0.00,WUHU216HW,2013-01-11 06:13:00,
2013-01-10 21:18:00,24.3,22.3,29.99,NNE,23,1.1,6.0,92,0.00,,,0.00,WUHU216HW,2013-01-11 06:18:00,
2013-01-10 21:23:00,24.3,22.3,29.99,NNE,23,5.4,5.8,92,0.00,,,0.00,WUHU216HW,2013-01-11 06:23:00,
2013-01-10 21:28:00,24.3,22.3,29.98,NE,45,3.4,5.6,92,0.00,,,0.00,WUHU216HW,2013-01-11 06:28:00,
2013-01-10 21:33:00,24.3,22.3,29.98,NNE,23,6.0,6.0,92,0.00,,,0.00,WUHU216HW,2013-01-11 06:33:00,
2013-01-10 21:38:00,24.3,22.3,29.98,NNE,23,1.8,6.0,92,0.00,,,0.00,WUHU216HW,2013-01-11 06:38:00,
2013-01-10 21:43:00,24.1,22.2,29.98,NNE,23,1.1,4.9,92,0.00,,,0.00,WUHU216HW,2013-01-11 06:43:00,
2013-01-10 21:48:00,24.1,22.2,29.98,NNE,23,6.0,6.0,92,0.00,,,0.00,WUHU216HW,2013-01-11 06:48:00,
2013-01-10 21:53:00,24.1,22.2,29.98,NE,45,1.1,6.0,92,0.00,,,0.00,WUHU216HW,2013-01-11 06:53:00,
2013-01-10 21:58:00,24.1,22.2,29.97,NE,45,5.4,6.3,92,0.00,,,0.00,WUHU216HW,2013-01-11 06:58:00,
2013-01-10 22:03:00,24.1,22.2,29.97,NNE,23,3.4,6.3,92,0.00,,,0.00,WUHU216HW,2013-01-11 07:03:00,
2013-01-10 22:08:00,24.1,22.2,29.97,North,0,0.4,5.4,92,0.00,,,0.00,WUHU216HW,2013-01-11 07:08:00,
2013-01-10 22:13:00,24.1,22.2,29.97,North,0,3.6,6.0,92,0.00,,,0.00,WUHU216HW,2013-01-11 07:13:00,
2013-01-10 22:18:00,24.1,21.9,29.97,North,0,1.6,6.0,91,0.00,,,0.00,WUHU216HW,2013-01-11 07:18:00,
2013-01-10 22:23:00,23.9,22.0,29.96,North,0,2.5,4.7,92,0.00,,,0.00,WUHU216HW,2013-01-11 07:23:00,
2013-01-10 22:28:00,23.9,22.0,29.96,North,0,1.8,4.7,92,0.00,,,0.00,WUHU216HW,2013-01-11 07:28:00,
2013-01-10 22:33:00,24.1,22.2,29.96,North,0,3.6,4.7,92,0.00,,,0.00,WUHU216HW,2013-01-11 07:33:00,
2013-01-10 22:38:00,23.9,22.0,29.96,NNW,338,0.9,4.0,92,0.00,,,0.00,WUHU216HW,2013-01-11 07:38:00,
2013-01-10 22:43:00,23.9,22.0,29.96,NNE,23,2.2,4.3,92,0.00,,,0.00,WUHU216HW,2013-01-11 07:43:00,
2013-01-10 22:48:00,23.9,22.0,29.95,NNE,23,1.1,5.4,92,0.00,,,0.00,WUHU216HW,2013-01-11 07:48:00,
2013-01-10 22:53:00,23.9,22.0,29.95,NNE,23,4.9,5.4,92,0.00,,,0.00,WUHU216HW,2013-01-11 07:53:00,
2013-01-10 22:58:00,23.9,22.0,29.95,North,0,3.4,4.9,92,0.00,,,0.00,WUHU216HW,2013-01-11 07:58:00,
2013-01-10 23:03:00,23.9,22.0,29.95,North,0,0.4,4.9,92,0.00,,,0.00,WUHU216HW,2013-01-11 08:03:00,
2013-01-10 23:08:00,24.1,22.2,29.94,NNE,23,2.7,6.3,92,0.00,,,0.00,WUHU216HW,2013-01-11 08:08:00,
2013-01-10 23:13:00,24.1,22.2,29.94,NNE,23,6.3,6.9,92,0.00,,,0.00,WUHU216HW,2013-01-11 08:13:00,
2013-01-10 23:18:00,24.1,22.2,29.94,North,0,0.4,6.9,92,0.00,,,0.00,WUHU216HW,2013-01-11 08:18:00,
2013-01-10 23:23:00,24.1,22.2,29.94,NE,45,4.3,6.7,92,0.00,,,0.00,WUHU216HW,2013-01-11 08:23:00,
2013-01-10 23:28:00,24.1,22.2,29.94,North,0,1.8,4.5,92,0.00,,,0.00,WUHU216HW,2013-01-11 08:28:00,
2013-01-10 23:33:00,24.1,22.2,29.94,North,0,2.5,6.5,92,0.00,,,0.00,WUHU216HW,2013-01-11 08:33:00,
2013-01-10 23:38:00,24.1,22.2,29.94,NNE,23,1.1,6.5,92,0.00,,,0.00,WUHU216HW,2013-01-11 08:38:00,
2013-01-10 23:43:00,24.1,22.2,29.94,North,0,0.2,3.4,92,0.00,,,0.00,WUHU216HW,2013-01-11 08:43:00,
2013-01-10 23:48:00,24.1,22.2,29.94,NNE,23,3.8,5.8,92,0.00,,,0.00,WUHU216HW,2013-01-11 08:48:00,
2013-01-10 23:53:00,24.1,22.2,29.94,North,0,2.2,5.8,92,0.00,,,0.00,WUHU216HW,2013-01-11 08:53:00,
2013-01-10 23:58:00,24.1,22.2,29.94,North,0,0.2,4.7,92,0.00,,,0.00,WUHU216HW,2013-01-11 08:58:00,